Weather History for Agassiz, BC

Change the Weather History Date:

Tuesday, January 15, 2013

  Actual Average Record
Temperature  
Mean Temperature 32 °F -  
Max Temperature 36 °F - - ()
Min Temperature 28 °F - - ()
Degree Days  
Heating Degree Days 33    
Moisture  
Dew Point 30 °F    
Average Humidity 86    
Maximum Humidity 98    
Minimum Humidity 74    
Precipitation  
Precipitation 0.00 in - - ()
Sea Level Pressure  
Sea Level Pressure 30.69 in    
Wind  
Wind Speed 1 mph ()    
Max Wind Speed 4 mph    
Max Gust Speed -    
T = Trace of Precipitation, MM = Missing Value Source: Averaged Metar Reports

Daily Weather History Graph

Daily Weather History Graph

Search for Another Location

Airport:

Trip Planner

Search our weather history database for the weather conditions in past years. The results will help you decide how hot, cold, wet, or windy it might be!

Date:

Astronomy

Jan. 15, 2013 Rise Set
Actual Time 7:56 AM PST 4:37 PM PST
Civil Twilight 7:20 AM PST 5:13 PM PST
Nautical Twilight 6:40 AM PST 5:53 PM PST
Astronomical Twilight 6:02 AM PST 6:31 PM PST
Moon 9:36 AM PST (1/15) 10:04 PM PST (1/15)
Length of Visible Light 9h 53m
Length of Day
8h 41m
Waxing Crescent, 20% of the Moon is Illuminated
Jan 15
Waxing Crescent
Jan 18
First Quarter
Jan 26
Full
Feb 3
Last Quarter
Feb 9
New

Hourly Weather History & Observations

Time (PST) Temp. Windchill Dew Point Humidity Pressure Visibility Wind Dir Wind Speed Gust Speed Precip Events Conditions
12:00 AM 31.1 °F - 28.0 °F 88% 30.60 in - NNW 1.2 mph - N/A   Unknown
1:00 AM 31.6 °F 28.3 °F 27.9 °F 86% 30.62 in - SSE 3.5 mph - N/A   Unknown
2:00 AM 31.8 °F - 28.0 °F 86% 30.63 in - South 2.3 mph - N/A   Unknown
3:00 AM 31.5 °F - 28.2 °F 88% 30.64 in - South 1.2 mph - N/A   Unknown
4:00 AM 32 °F - 28 °F 81% 30.64 in - Calm Calm - -  
4:00 AM 31.6 °F - 28.4 °F 88% 30.64 in - Calm Calm - N/A   Unknown
5:00 AM 31.8 °F - 28.4 °F 87% 30.65 in - Calm Calm - N/A   Unknown
6:00 AM 31.5 °F - 28.8 °F 90% 30.65 in - Calm Calm - N/A   Unknown
7:00 AM 31.8 °F - 28.8 °F 88% 30.67 in - SSW 1.2 mph - N/A   Unknown
8:00 AM 31.6 °F - 28.4 °F 88% 30.69 in - Calm Calm - N/A   Unknown
9:00 AM 31.3 °F - 28.9 °F 91% 30.71 in - Calm Calm - N/A   Unknown
10:00 AM 33 °F - 30 °F 82% 30.72 in - Calm Calm - -  
10:00 AM 32.9 °F - 29.7 °F 88% 30.72 in - Calm Calm - N/A   Unknown
11:00 AM 34.2 °F - 30.0 °F 85% 30.74 in - Calm Calm - N/A   Unknown
12:00 PM 35.4 °F - 30.0 °F 81% 30.72 in - Calm Calm - N/A   Unknown
1:00 PM 36.3 °F - 30.2 °F 78% 30.71 in - SSE 2.3 mph - N/A   Unknown
2:00 PM 36.9 °F - 29.7 °F 75% 30.70 in - SE 1.2 mph - N/A   Unknown
3:00 PM 36.9 °F - 30.2 °F 77% 30.71 in - SE 1.2 mph - N/A   Unknown
4:00 PM 36 °F - 31 °F 74% 30.71 in - Calm Calm - -  
4:00 PM 35.8 °F - 30.7 °F 82% 30.71 in - Calm Calm - N/A   Unknown
5:00 PM 34.7 °F - 30.2 °F 84% 30.71 in - NNW 1.2 mph - N/A   Unknown
6:00 PM 32.9 °F - 30.4 °F 90% 30.71 in - East 1.2 mph - N/A   Unknown
7:00 PM 32.9 °F - 30.2 °F 90% 30.71 in - Calm Calm - N/A   Unknown
8:00 PM 33.3 °F - 30.9 °F 91% 30.71 in - Calm Calm - N/A   Unknown
9:00 PM 33.3 °F - 30.7 °F 90% 30.71 in - Calm Calm - N/A   Unknown
10:00 PM 33 °F - 31 °F 88% 30.70 in - Calm Calm - -  
10:00 PM 31.3 °F - 30.7 °F 98% 30.70 in - Calm Calm - N/A   Unknown
11:00 PM 31.5 °F - 30.9 °F 98% 30.70 in - Calm Calm - N/A   Unknown